Wind_Speed
40 40 40 40 40 40 40 40 40 41 42 43 42 42 41 40 40 39 39 38 38 38 38 38 39 40 40 40 39 39 39 39 39 40 41 44 46 48 49 50 53 57 57 57 59 59 58 59 61 63 63 63 63 61 59 59 62 64 65 64 63 60 58 57 57 58 57 56 55 54 52 51 49 49 50 50 50 49 49 48 47 46 45 45 45
38 38 40 40 40 40 39 39 39 39 40 41 43 43 42 41 40 40 40 40 39 39 39 39 39 40 40 41 40 40 40 40 40 40 40 41 43 45 47 48 49 51 54 54 54 55 55 57 60 62 63 63 63 63 61 58 57 59 62 64 64 61 59 58 58 58 56 55 55 53 53 54 55 52 51 50 49 49 50 49 48 47 46 45 45
37 37 39 40 40 39 39 39 39 39 39 39 40 42 42 42 41 40 40 40 40 40 40 40 40 40 41 41 42 41 41 41 41 41 41 41 41 43 45 47 49 51 52 53 53 53 54 56 58 59 60 61 60 61 61 60 58 57 57 58 59 59 58 58 59 58 55 52 50 50 52 55 58 55 52 50 48 49 50 50 49 48 48 47 46
39 38 38 39 40 40 40 39 39 39 39 39 39 39 41 42 42 42 41 40 40 41 41 41 41 41 41 42 43 43 43 42 42 42 42 42 41 41 42 45 47 50 52 53 52 52 52 54 55 55 56 58 58 57 56 56 57 57 55 54 54 54 54 55 55 53 50 48 47 49 53 56 57 56 53 50 49 49 49 50 49 48 47 47 47
41 40 39 39 40 41 42 42 41 40 39 39 39 39 40 41 42 43 43 42 41 41 42 42 42 41 41 42 43 44 45 44 43 42 42 42 42 41 41 42 44 47 50 52 53 52 52 51 52 51 51 53 54 54 54 55 55 56 56 54 52 51 51 51 50 48 47 48 48 51 54 57 57 56 54 51 49 48 48 47 47 46 45 44 44
42 41 40 40 41 41 42 43 43 42 41 39 39 39 40 40 41 43 44 45 44 43 42 43 43 43 42 42 43 45 46 45 44 43 42 43 43 43 42 41 42 44 47 49 51 53 52 52 51 51 50 50 50 50 51 51 50 51 51 51 49 48 48 49 48 48 48 50 50 52 55 57 57 55 53 51 48 46 45 44 44 43 42 41 41
42 41 40 40 41 41 42 43 43 43 42 40 39 39 39 40 40 41 43 44 45 44 44 44 44 43 43 43 43 45 46 46 44 43 43 44 44 44 43 42 41 42 43 45 47 49 51 51 52 52 52 52 51 50 50 49 49 48 48 48 47 47 48 48 49 50 50 52 53 53 55 55 54 52 50 47 46 45 44 44 43 42 41 41 40
42 41 41 41 41 42 43 44 44 44 44 43 41 40 40 40 40 40 41 43 44 45 45 45 45 44 43 44 44 45 46 46 45 43 43 44 44 45 45 44 42 41 41 42 43 44 46 48 49 50 50 51 51 50 50 50 49 49 48 47 47 47 48 48 49 50 51 52 53 53 52 52 50 49 47 45 45 45 45 44 44 43 43 43 43
41 41 41 41 41 43 44 45 46 46 46 45 44 42 41 40 40 40 40 42 43 44 46 47 46 44 43 43 44 45 46 47 46 44 43 44 44 45 46 45 43 42 41 41 42 43 43 44 45 46 47 47 48 48 47 47 47 47 46 46 46 47 48 48 49 50 50 51 51 51 50 49 48 47 46 45 45 45 45 45 45 45 45 46 46
42 41 41 41 42 43 44 46 47 48 48 47 47 45 44 42 41 40 40 41 41 43 45 47 47 45 43 43 43 44 46 48 47 45 44 44 45 45 46 46 45 43 41 41 41 42 42 43 43 43 44 45 46 46 46 46 46 46 46 46 47 47 48 49 49 49 49 50 49 49 49 48 46 46 45 45 45 45 46 46 47 46 47 47 48
42 42 42 42 42 43 45 46 47 48 48 48 48 47 46 45 43 42 41 41 40 41 42 45 47 46 43 42 43 43 44 47 47 45 43 44 46 46 45 45 45 44 43 41 41 41 42 42 43 43 44 44 45 45 46 46 46 46 47 47 47 48 48 49 49 49 48 48 48 48 48 47 46 45 45 45 45 45 46 46 47 48 49 50 50
43 43 43 43 43 43 45 46 47 48 49 49 50 49 48 47 46 45 44 43 41 41 41 43 45 46 45 43 42 42 43 45 46 45 42 43 46 48 46 44 43 44 44 43 41 41 41 41 42 43 43 44 44 45 45 46 46 46 46 46 47 47 48 48 48 48 48 48 48 48 48 47 46 46 44 44 45 45 46 47 48 49 51 51 52
44 44 44 43 43 44 45 46 48 48 49 50 50 50 50 49 49 48 47 45 44 42 42 42 44 46 46 44 42 41 41 43 45 44 41 41 45 48 48 45 42 42 43 44 43 42 41 40 41 41 42 42 43 43 43 44 44 44 44 45 46 46 47 47 47 47 48 48 48 48 47 47 47 46 45 45 46 47 48 49 50 51 52 52 52
46 45 45 45 45 45 46 47 48 49 49 50 50 50 50 50 50 49 48 47 46 44 44 43 43 45 46 45 43 41 40 41 42 43 40 40 44 47 47 46 44 41 40 41 42 42 42 41 40 40 40 41 41 41 42 42 42 43 44 45 45 46 47 47 47 47 47 48 48 48 48 48 48 47 47 47 47 48 48 49 50 50 51 52 52
48 47 47 47 46 46 46 47 48 48 49 49 50 50 50 49 49 48 47 47 47 46 45 44 43 44 45 44 43 41 39 39 39 40 39 39 43 46 46 45 45 43 41 40 39 40 41 42 41 41 41 41 41 41 41 42 42 43 43 44 45 45 46 47 47 47 48 48 49 49 49 49 49 48 48 48 48 48 48 49 49 50 51 52 53
48 47 47 48 47 47 47 48 48 48 48 49 49 49 49 48 47 47 47 47 47 46 45 44 44 44 44 44 42 40 38 37 37 37 37 38 42 46 44 42 42 43 43 42 40 38 39 40 41 41 41 41 41 42 42 42 43 43 44 44 45 46 46 47 48 48 49 50 50 50 49 48 48 48 48 48 48 48 49 50 50 51 52 52 53
47 47 47 48 49 49 49 49 49 49 48 49 48 48 48 47 47 48 48 48 47 46 45 44 44 44 44 42 40 39 37 35 35 35 36 37 41 44 43 39 39 41 42 42 42 40 39 38 38 39 40 40 41 41 42 42 43 43 44 45 45 46 47 47 48 48 48 48 48 47 47 46 46 46 46 47 47 47 48 49 50 50 51 51 51
51 51 51 51 50 49 49 51 53 53 52 52 51 50 48 48 48 48 49 49 48 47 46 45 44 44 43 40 38 37 35 33 33 33 34 35 39 43 42 38 37 38 39 41 42 42 41 40 39 38 38 39 39 40 40 41 41 41 42 42 43 44 44 45 45 45 45 45 45 45 45 45 45 45 45 45 46 46 46 47 47 48 49 49 49
55 55 53 52 51 51 52 54 56 56 55 54 53 52 50 50 49 49 49 50 49 47 46 45 44 42 39 37 36 35 33 32 32 32 32 33 37 41 40 36 35 37 38 39 40 41 41 41 41 40 39 39 39 40 40 40 40 40 41 41 41 42 42 42 42 42 42 43 43 43 43 44 44 45 45 46 46 46 46 46 47 48 48 49 49
55 54 53 52 52 52 53 54 54 52 51 49 48 48 47 48 48 48 48 48 48 47 45 43 41 38 36 34 33 33 32 32 31 31 31 31 34 38 37 34 34 36 37 37 38 39 39 39 39 39 39 39 39 40 40 41 41 41 41 41 41 41 41 41 41 42 42 42 43 43 44 44 45 45 46 46 46 47 47 47 48 48 49 49 50
53 53 52 51 50 49 49 48 47 46 44 43 43 42 43 43 44 45 45 44 44 43 41 39 36 34 32 31 31 31 31 31 30 30 30 29 31 35 34 31 31 34 35 36 37 37 38 37 37 37 38 38 38 39 40 40 40 40 39 40 40 40 41 41 41 41 41 42 42 43 43 44 44 45 45 45 46 46 47 47 48 48 48 49 50
51 50 49 47 46 45 44 43 42 41 40 40 40 39 39 40 40 40 39 39 39 38 35 33 31 30 29 28 29 29 30 30 29 29 28 27 28 31 32 30 30 32 34 35 35 35 35 35 34 35 35 36 36 37 38 38 38 38 37 38 38 39 39 39 39 39 40 40 40 41 41 42 42 43 43 44 45 45 46 46 47 47 47 48 48
47 46 45 44 42 41 40 39 39 38 37 37 37 36 36 35 35 34 33 33 33 32 29 28 27 27 26 26 27 28 28 28 28 27 26 25 26 29 29 29 30 32 33 33 33 33 32 31 31 32 34 34 35 35 36 36 36 35 35 35 35 36 36 36 37 37 37 38 38 38 39 40 40 41 41 42 43 43 44 44 45 45 46 46 46
43 42 41 40 39 38 37 37 35 34 34 34 34 34 33 32 31 30 29 29 28 27 25 24 24 24 23 23 24 25 25 26 26 25 24 24 25 26 28 28 29 30 30 30 31 31 30 30 29 30 32 33 33 32 32 33 33 34 34 34 34 34 35 35 35 35 35 36 36 37 38 38 39 39 39 40 40 41 41 42 43 43 44 44 45
40 39 38 37 36 35 35 34 32 31 31 31 31 31 30 29 28 27 26 25 24 23 22 21 21 21 20 20 21 23 23 23 23 23 22 22 23 25 26 27 26 27 28 28 28 28 29 28 27 28 29 29 29 29 29 30 31 32 32 32 32 32 32 33 33 33 34 34 34 35 35 36 36 37 37 38 38 38 39 40 40 41 42 42 43
38 37 36 35 34 33 32 31 29 28 27 27 28 28 27 26 24 23 22 21 21 20 19 19 18 18 17 17 19 21 20 20 21 22 21 21 22 24 24 24 23 24 26 26 26 26 26 25 24 25 26 26 26 27 28 28 29 29 29 29 29 30 30 30 31 32 32 33 33 34 34 34 34 35 35 36 37 37 37 37 38 38 39 39 40
37 36 34 33 32 31 30 29 27 26 24 24 24 24 24 23 21 20 19 19 19 18 17 16 16 16 15 16 18 18 18 18 19 20 19 20 21 21 21 21 22 23 24 24 24 24 23 23 23 23 24 24 25 25 26 26 26 26 26 27 27 28 28 29 29 30 31 32 33 33 34 34 34 34 34 35 35 36 36 36 36 37 37 38 38
35 34 33 32 30 29 28 27 26 24 23 22 21 21 21 21 19 18 18 17 17 16 15 14 14 14 15 15 16 17 16 16 16 17 18 18 19 19 19 20 21 21 22 22 22 22 21 22 22 22 23 23 23 23 24 24 24 24 25 25 26 26 27 27 28 29 29 30 31 32 33 33 33 34 34 34 35 35 36 36 36 36 37 37 38
34 32 32 31 29 28 27 25 24 23 22 20 19 18 19 19 18 16 16 16 16 14 14 13 13 14 14 14 15 15 15 15 15 15 16 17 17 17 18 18 19 19 20 20 20 20 21 22 22 21 21 21 21 22 22 23 23 23 24 24 25 25 26 26 27 28 28 29 30 31 32 33 33 34 34 34 35 36 36 36 36 37 37 37 38
32 31 31 30 28 27 26 24 23 22 21 20 18 16 16 18 17 15 14 15 15 13 13 12 13 13 14 14 14 14 14 15 15 14 16 16 16 16 16 16 17 19 19 19 19 20 21 21 20 20 20 20 21 21 22 22 22 22 23 23 24 25 25 26 27 27 28 29 30 30 31 32 33 33 34 34 35 35 36 36 37 37 37 38 39
32 31 30 29 28 27 26 24 23 22 21 20 19 16 14 15 16 16 14 13 13 13 12 12 12 13 12 12 13 13 14 15 15 14 15 16 15 14 15 16 17 18 17 17 19 20 20 20 19 19 19 20 20 21 21 21 22 22 22 23 23 24 25 25 26 27 28 29 30 30 31 32 33 33 34 34 34 35 35 36 36 37 37 38 39
33 31 30 29 28 27 26 25 23 21 20 19 18 17 15 14 14 15 14 13 12 12 12 12 12 12 11 11 12 14 14 15 14 14 15 15 14 14 16 16 16 16 16 17 18 18 18 18 18 18 19 19 20 21 21 21 21 22 22 22 23 24 25 26 26 27 28 28 29 30 31 32 32 33 33 33 34 34 34 34 34 35 35 36 36
32 32 31 30 28 27 26 25 24 22 21 19 17 17 16 14 13 13 13 13 12 11 11 12 12 11 11 11 12 13 14 13 13 13 14 15 14 14 15 15 15 16 16 17 17 17 17 18 18 18 18 19 19 20 21 21 22 22 22 22 22 23 24 25 26 26 27 28 28 29 29 30 31 31 32 32 32 32 32 32 32 31 32 32 32
32 31 31 31 30 28 27 26 24 23 22 20 18 17 16 16 14 13 12 13 12 12 11 11 11 11 11 11 12 13 13 13 13 13 14 14 13 13 14 15 16 16 16 16 16 17 17 18 18 18 18 19 19 20 20 20 21 21 20 20 21 21 22 23 24 25 26 26 27 28 28 28 29 29 30 30 30 31 30 30 29 28 29 29 29
32 31 30 31 30 29 27 26 25 23 22 20 19 17 16 15 15 14 13 12 12 12 12 11 11 12 12 11 11 12 13 12 12 13 14 12 12 13 14 15 15 16 15 16 16 17 17 18 18 18 18 18 18 18 18 19 19 19 19 19 20 20 21 22 22 23 24 24 25 25 26 26 27 27 27 28 28 28 28 27 27 26 26 27 27
32 31 30 30 29 29 28 27 26 25 23 21 20 18 16 15 14 14 13 12 12 12 12 12 12 12 12 11 11 12 12 12 13 13 13 11 11 13 14 14 14 14 15 15 16 16 16 17 17 17 17 16 16 16 17 17 18 18 19 19 19 19 20 20 21 22 22 23 23 24 24 24 25 25 25 26 26 26 26 25 25 26 26 26 26
32 31 31 30 29 28 28 26 25 25 24 23 21 19 18 16 15 14 13 13 12 12 12 12 12 12 12 12 12 12 12 12 13 13 12 12 13 14 14 13 13 14 14 15 15 16 16 16 16 16 16 16 16 16 17 17 18 18 19 19 19 19 20 20 20 21 21 22 22 22 22 23 23 24 24 24 24 24 24 24 24 25 25 25 25
32 32 32 31 30 29 28 27 26 25 24 23 22 20 19 17 16 15 14 13 13 12 13 13 13 12 13 13 13 13 13 12 13 13 12 12 14 15 14 14 15 15 15 15 16 16 16 16 16 16 16 16 16 17 17 18 18 19 19 19 20 20 20 20 20 21 21 21 22 22 22 22 23 23 23 23 23 23 23 23 23 23 23 23 24
32 33 33 32 31 30 28 27 26 25 24 23 22 21 20 18 17 16 15 14 13 13 13 13 13 13 13 13 13 14 14 13 13 14 13 13 14 15 15 15 15 15 15 15 16 16 17 16 16 17 17 17 17 17 17 17 18 19 19 20 20 20 20 20 20 21 21 21 21 21 21 22 22 22 21 21 21 21 22 22 22 21 21 22 22
34 34 33 33 32 31 29 28 27 26 25 24 22 22 21 20 18 17 16 15 14 14 14 14 14 14 14 14 14 14 14 14 14 14 14 14 14 15 15 15 15 15 15 16 16 17 17 17 17 17 17 17 17 16 16 17 18 18 19 20 20 20 20 20 21 21 21 21 21 21 21 21 21 20 20 20 20 20 20 20 20 20 21 21 21
35 35 34 34 33 32 30 29 28 27 26 25 23 22 21 20 20 19 17 16 16 15 14 14 15 15 15 15 15 15 15 15 14 14 14 15 15 15 15 15 15 15 16 16 16 17 17 17 17 17 17 17 16 16 16 17 17 18 19 19 19 19 20 20 21 21 21 21 21 21 21 20 20 19 19 19 19 19 19 19 20 20 20 19 19
35 35 35 33 33 32 31 30 29 27 26 25 25 24 23 21 21 20 19 18 17 16 16 15 16 16 16 16 16 16 15 15 15 15 15 15 15 15 15 15 15 16 16 16 17 17 17 17 17 17 16 17 17 16 16 16 17 17 18 18 18 19 19 20 21 20 20 20 20 21 20 19 18 18 18 18 18 18 18 19 19 18 18 17 16
36 35 34 33 32 31 31 30 29 28 27 26 25 24 24 23 22 21 20 20 19 18 17 17 17 17 17 17 17 17 16 16 16 16 16 16 16 16 16 15 15 16 16 16 16 17 17 17 16 16 17 17 17 16 16 16 16 17 17 17 18 18 19 20 20 20 19 20 20 20 19 18 17 17 17 18 18 18 18 17 17 16 15 14 13
35 34 33 32 31 31 30 30 29 29 28 27 25 25 24 24 23 22 21 21 20 20 19 19 19 19 18 18 18 18 18 18 18 17 17 17 17 17 16 16 16 16 16 16 16 17 17 17 17 17 17 17 16 16 15 16 16 17 17 17 17 18 19 20 20 19 19 19 18 18 18 17 17 17 17 17 17 16 16 15 14 13 12 12 11
34 33 32 32 31 30 29 29 28 28 28 28 26 25 25 25 24 23 22 22 21 21 21 21 21 20 20 19 19 19 19 19 19 18 18 17 17 17 17 16 16 17 17 17 17 17 17 16 16 16 17 16 16 16 16 16 16 17 17 17 17 17 19 19 19 18 18 17 17 17 17 16 16 16 16 16 15 15 14 13 12 11 10 10 9
34 33 32 31 30 30 29 28 27 27 27 27 27 26 26 25 25 25 24 23 22 22 22 22 22 21 21 21 20 20 20 20 20 19 19 18 18 18 18 17 17 17 17 17 17 17 16 16 16 16 16 16 16 17 17 17 17 17 17 16 16 17 17 17 17 17 17 16 16 16 16 15 15 15 14 14 14 13 12 11 11 10 9 9 8
34 33 33 32 30 29 28 27 26 26 26 26 27 26 26 26 26 26 25 25 24 23 22 22 22 22 22 22 21 21 22 22 21 20 20 19 19 19 19 18 17 18 18 18 17 17 16 16 16 16 16 16 17 17 17 17 17 17 16 16 16 16 16 15 15 15 16 15 15 15 15 15 15 14 13 13 13 12 11 11 10 10 10 9 8
34 34 33 32 30 29 27 26 26 25 25 25 25 26 26 26 26 26 26 26 26 24 23 23 23 22 22 22 22 22 22 22 22 21 21 20 20 20 19 19 18 18 18 18 18 17 16 16 16 16 16 16 17 17 17 17 17 16 16 16 15 14 14 14 14 14 14 14 14 14 14 14 14 13 13 12 12 12 11 11 11 10 10 8 8
34 33 32 31 30 28 27 26 25 24 24 24 24 24 25 25 25 26 26 27 27 26 25 24 24 23 22 22 22 22 22 22 22 22 22 21 21 20 20 19 19 18 19 18 18 17 16 16 16 16 16 16 16 17 17 16 16 15 15 15 14 13 13 13 13 13 14 13 13 13 13 13 13 13 12 12 12 12 12 12 11 10 8 8 8
33 32 31 29 28 27 26 25 24 24 23 23 23 23 23 24 24 25 25 26 27 27 27 26 25 24 24 23 22 22 22 22 22 23 22 22 21 21 20 20 19 19 19 19 18 17 16 16 16 16 16 16 16 16 16 16 15 14 13 13 13 13 12 12 12 13 13 13 13 13 13 13 13 13 13 13 13 13 12 11 9 8 8 8 8
31 30 28 28 27 26 25 25 24 24 23 23 23 23 23 23 23 24 24 25 26 27 28 28 27 26 26 24 23 23 22 22 23 23 23 22 22 22 21 21 20 19 19 19 18 17 17 16 16 16 16 16 16 16 15 14 14 13 12 12 12 12 12 11 12 12 12 12 12 13 12 13 13 13 13 14 13 13 11 9 8 8 7 7 6
Wind_Direction
312 310 308 306 304 302 299 298 296 295 294 293 293 292 290 288 285 282 280 279 278 276 274 273 271 270 269 268 266 265 264 263 261 259 256 253 252 252 252 252 250 248 248 250 251 249 248 249 251 252 251 249 248 248 250 251 248 243 242 242 241 242 244 247 252 256 260 263 266 268 270 271 268 263 257 253 251 249 247 246 247 247 247 248 249
314 311 307 304 302 301 298 297 296 295 295 293 293 292 292 290 288 284 281 278 276 276 275 273 272 270 269 268 267 265 264 263 262 261 259 256 253 251 250 250 249 247 247 248 249 249 248 247 249 252 253 252 251 250 250 252 253 250 248 246 243 242 242 244 248 251 254 259 264 268 271 273 273 268 260 254 253 253 251 249 248 248 248 248 248
318 315 309 304 301 299 298 297 296 295 295 294 293 293 293 293 292 289 286 281 277 274 273 272 271 270 269 267 267 265 262 261 262 262 261 259 257 254 250 249 248 246 246 247 247 247 247 246 247 250 252 253 253 253 252 253 254 255 254 252 249 246 245 246 247 248 250 253 258 263 268 272 273 270 263 257 255 254 253 252 251 250 249 248 248
317 316 313 307 302 300 299 298 297 296 296 295 295 294 294 294 294 293 292 288 284 279 274 272 270 269 267 266 266 266 263 260 259 260 261 261 260 258 254 251 248 245 245 246 246 246 245 244 245 246 247 249 251 253 254 254 254 255 254 252 250 249 249 248 248 248 248 251 255 260 265 268 269 268 265 261 258 256 254 253 253 252 251 250 249
313 313 312 310 307 304 302 300 298 297 296 295 295 295 295 295 296 295 295 294 291 287 281 275 271 268 266 264 263 264 265 263 259 257 258 260 261 259 258 255 251 247 245 244 245 246 246 245 244 243 243 243 245 247 249 250 250 251 250 249 247 247 246 246 246 246 247 251 255 259 263 264 264 264 263 262 259 257 256 254 253 253 252 250 250
310 310 310 309 308 307 304 302 298 296 296 295 295 295 295 296 296 296 297 296 296 294 290 283 276 270 266 263 260 260 263 264 261 256 254 257 259 259 258 256 254 251 248 245 244 245 245 246 245 244 244 243 242 242 243 244 244 244 244 244 244 243 242 243 245 246 249 252 254 256 259 260 261 260 260 259 258 257 256 254 253 251 251 250 250
309 308 308 308 307 306 304 302 299 297 294 294 294 294 295 295 295 295 296 297 297 296 295 291 285 276 269 264 260 257 258 261 261 257 253 253 256 257 258 256 254 252 250 248 247 245 245 245 245 245 246 246 245 244 243 244 245 245 245 245 245 244 244 245 245 247 249 251 252 253 255 257 257 257 256 255 255 254 254 254 254 254 254 254 254
307 306 305 306 306 305 304 302 300 298 295 294 293 293 293 294 293 294 295 296 297 297 297 296 292 284 275 268 262 258 256 257 258 255 252 251 252 254 255 255 254 251 249 247 246 246 246 245 245 245 245 246 246 247 247 247 247 248 248 248 248 247 247 246 246 247 248 250 251 252 253 253 252 252 251 251 252 254 255 257 258 259 259 258 258
305 304 304 305 305 304 303 302 300 299 297 295 294 293 293 292 292 293 293 294 295 296 298 298 295 290 282 273 265 260 256 255 256 253 249 248 249 251 252 253 253 252 250 247 244 244 244 244 244 244 245 245 245 245 246 247 247 247 246 247 247 247 247 247 247 248 248 249 250 250 250 249 249 249 250 251 253 255 257 259 260 260 260 260 259
304 304 304 304 304 303 301 301 300 299 298 297 296 295 294 293 291 291 292 292 293 294 296 297 295 292 287 278 269 262 258 256 256 253 248 245 246 247 248 249 250 251 250 248 246 243 242 242 243 243 243 243 243 243 243 244 244 244 244 244 245 245 245 246 247 247 248 248 248 248 248 247 248 249 251 253 254 255 256 258 259 260 260 260 260
304 304 304 303 302 300 299 299 299 299 298 298 297 296 295 294 293 291 291 291 291 292 293 294 293 292 290 284 274 265 259 257 256 254 249 244 243 243 244 245 247 247 247 247 246 244 243 242 241 242 242 242 242 242 241 241 241 241 242 242 242 243 244 245 246 246 246 246 246 246 246 247 248 249 251 254 255 257 257 258 259 260 260 261 261
304 304 303 302 301 299 298 297 297 297 297 297 297 296 296 295 294 293 292 291 290 290 289 290 290 290 290 287 279 269 262 258 257 255 250 245 242 240 241 242 244 244 244 244 244 244 243 242 242 242 242 242 242 241 241 241 240 240 241 241 242 243 244 245 245 244 244 244 244 244 245 247 248 250 252 255 257 258 259 259 259 260 260 261 262
304 303 302 301 300 299 297 296 296 296 295 295 294 294 295 295 294 293 292 291 290 289 288 287 287 288 289 288 282 273 264 259 258 256 251 246 243 240 238 239 241 241 242 242 242 242 242 242 242 242 242 243 243 243 242 242 242 242 242 242 243 244 244 244 244 243 243 243 244 245 246 248 250 252 254 256 257 258 258 258 258 259 259 261 262
304 304 302 300 299 297 296 295 294 293 293 293 292 292 292 292 292 292 291 290 290 289 287 287 286 287 288 287 282 274 266 260 257 256 252 247 244 241 238 237 238 239 240 240 241 241 241 240 240 240 241 242 242 243 243 243 243 243 243 243 243 243 243 243 243 243 243 244 246 248 250 252 253 255 257 258 258 258 258 258 257 257 258 259 260
305 304 302 300 299 297 295 294 293 292 292 291 290 290 290 290 290 290 289 289 289 288 287 286 285 286 286 286 281 273 266 259 256 255 252 247 245 242 238 236 237 237 237 238 239 240 240 240 240 239 239 239 240 241 242 242 243 243 243 243 242 242 242 243 243 244 246 249 251 253 255 256 257 257 258 259 259 259 258 258 257 257 256 257 257
303 302 300 299 298 297 296 294 293 292 291 290 289 288 288 288 288 288 288 288 287 287 286 285 285 286 286 284 278 271 263 258 255 254 250 246 245 244 240 236 236 236 237 237 237 237 238 239 240 240 240 240 240 241 241 242 243 244 245 245 245 245 245 246 247 249 252 254 255 256 256 256 257 257 258 258 258 257 257 256 256 256 255 256 257
303 301 300 299 298 298 297 295 294 293 292 290 289 287 287 287 287 287 287 287 286 286 286 285 284 285 285 281 275 267 260 256 254 252 248 245 246 245 241 237 235 236 236 237 237 237 237 237 238 239 240 240 241 241 242 243 244 245 246 247 247 248 249 250 251 253 254 254 254 254 255 255 255 256 256 256 255 255 255 255 256 256 256 256 257
302 302 302 300 299 298 297 296 295 295 294 292 289 287 286 286 286 286 286 286 286 286 285 284 284 284 282 277 270 263 257 254 253 251 246 243 245 246 243 237 234 235 235 236 237 237 237 237 237 238 239 240 240 241 241 242 244 244 245 246 247 248 249 250 251 252 252 253 253 253 253 253 254 254 254 255 255 255 256 257 258 258 258 259 260
302 302 303 302 299 298 296 295 296 296 295 294 291 288 286 284 284 284 285 285 286 286 285 284 282 281 277 272 266 260 255 253 251 248 243 240 243 246 244 238 234 233 234 236 237 237 238 238 238 238 239 240 241 241 242 243 244 244 245 246 247 248 249 250 251 252 252 253 254 254 254 254 254 255 255 256 257 257 257 258 259 259 260 260 260
304 304 303 301 299 297 296 296 297 297 298 297 294 290 286 283 282 281 282 283 284 284 283 282 280 277 272 267 262 257 255 252 249 246 242 238 241 245 245 240 235 233 233 235 237 238 238 239 239 240 240 240 241 243 243 244 244 245 246 247 248 248 249 250 250 251 252 252 253 254 255 255 255 255 256 256 257 258 258 258 258 259 259 260 260
306 306 304 303 301 300 300 300 300 300 300 300 297 293 288 285 282 281 281 281 281 281 281 281 278 274 269 264 259 256 254 252 247 245 242 237 238 243 244 240 236 235 233 233 235 237 238 239 240 240 241 242 242 243 244 245 245 245 246 246 247 248 248 249 249 250 250 251 252 252 253 254 254 255 255 255 256 256 256 257 257 257 257 258 259
307 307 306 306 305 305 304 303 302 302 303 301 298 295 291 288 285 283 282 282 281 281 281 279 276 271 266 262 258 255 253 250 246 243 240 236 236 240 242 239 236 236 235 233 233 235 237 239 240 240 241 242 243 244 245 245 246 246 246 247 247 248 249 249 249 250 250 250 251 252 252 253 254 254 255 255 255 255 255 256 256 256 256 257 258
309 309 309 309 309 308 306 304 303 302 301 299 296 295 293 291 289 288 286 284 282 282 280 278 274 270 266 261 257 254 251 248 245 243 239 235 234 236 239 237 234 235 237 236 235 235 235 236 238 240 240 241 242 243 245 246 247 247 247 247 248 249 249 249 249 249 249 250 250 250 251 252 253 253 254 254 255 255 256 256 257 257 257 257 258
313 313 313 313 312 310 307 305 303 301 298 295 295 295 295 294 293 291 288 285 284 282 281 278 274 270 266 260 255 252 248 245 244 241 238 235 233 233 235 234 233 234 236 236 236 236 235 234 235 237 239 241 242 244 245 247 248 248 247 247 247 248 249 249 250 250 250 251 251 251 251 251 252 253 254 254 255 256 257 258 259 259 260 260 260
317 317 317 316 315 312 310 308 306 303 299 297 297 296 296 295 293 290 288 286 285 283 281 278 274 270 265 258 253 250 246 243 242 240 237 234 232 231 232 232 231 231 233 234 234 234 235 234 233 235 238 241 242 243 243 244 246 247 248 249 249 249 249 250 251 251 252 252 253 253 254 254 254 254 254 254 255 255 256 257 258 260 261 263 263
321 321 320 319 317 315 313 312 311 309 305 302 301 300 299 297 293 291 290 288 286 284 281 278 273 268 262 256 251 248 245 242 241 240 237 234 232 232 232 232 229 228 230 232 232 232 233 233 232 232 234 236 237 239 240 242 244 246 248 249 250 251 251 251 252 252 253 253 253 253 253 254 254 255 255 255 256 256 256 256 256 258 259 261 263
324 324 323 322 321 319 318 317 317 315 311 308 305 303 302 299 298 295 293 289 287 285 282 277 272 266 260 255 253 250 246 242 241 241 240 237 235 233 232 230 227 226 226 229 230 230 230 229 229 230 230 232 234 236 238 240 242 243 245 247 249 250 251 251 252 252 253 254 254 255 254 254 254 254 254 255 256 257 257 257 256 256 257 258 259
326 326 326 325 325 324 323 322 321 319 316 312 309 306 304 303 302 300 296 291 287 285 282 278 271 265 260 256 254 252 249 245 242 242 242 240 236 233 231 228 226 225 224 226 228 229 229 228 228 229 230 232 234 235 237 239 240 242 243 245 246 248 249 250 251 252 252 253 254 255 256 256 256 255 254 254 255 255 256 256 256 256 257 257 257
327 328 327 327 328 327 327 326 325 323 321 318 314 311 308 306 304 303 298 294 290 287 282 278 271 265 261 257 253 252 250 247 243 240 240 240 237 233 231 228 227 226 224 224 226 227 228 229 230 231 232 234 235 237 237 238 239 241 242 244 245 246 247 249 250 251 252 253 253 254 255 256 256 256 256 255 255 255 256 256 256 257 257 257 257
327 328 328 328 329 329 329 329 328 327 325 323 320 317 313 310 307 305 300 295 293 289 283 278 271 264 259 256 253 251 248 246 242 238 238 238 235 233 231 228 227 227 224 222 225 227 229 230 231 233 234 236 237 239 239 240 241 242 244 245 246 247 248 249 250 251 253 253 254 255 255 255 256 256 257 257 256 256 256 257 257 257 257 257 257
328 328 328 328 329 330 330 330 329 328 326 325 323 320 317 311 307 306 302 297 294 291 285 278 270 264 260 255 251 246 241 240 238 236 236 236 233 231 230 227 227 229 226 223 225 227 230 232 232 234 235 237 239 241 242 243 244 245 246 248 249 250 252 253 253 254 255 255 256 257 257 257 258 258 258 258 257 257 257 256 257 257 257 258 258
328 329 328 327 328 328 328 328 328 327 326 324 322 320 317 312 305 303 302 298 294 291 285 278 272 268 262 252 244 240 238 236 235 234 236 234 229 228 230 229 229 230 230 228 228 228 231 234 234 235 237 238 241 244 245 246 248 249 250 252 253 255 256 257 258 258 258 258 259 259 260 260 261 261 261 261 260 260 259 259 258 258 258 259 259
328 329 328 327 327 327 326 326 326 325 324 324 322 319 316 313 307 302 299 297 294 289 283 279 274 269 259 247 241 240 240 238 235 234 234 232 228 227 229 231 231 231 231 232 232 232 234 236 237 238 240 243 245 247 249 251 252 252 253 253 254 255 256 257 259 259 260 260 260 260 260 261 262 262 263 263 263 262 262 261 260 260 260 260 260
327 329 328 327 326 325 325 324 323 322 321 321 321 319 316 313 310 304 298 294 291 286 281 277 272 266 259 250 245 243 242 239 238 237 236 233 230 229 229 228 230 231 232 233 234 234 235 238 239 239 241 243 246 248 250 252 254 255 255 255 255 256 257 258 258 259 260 260 260 260 260 260 260 260 261 261 262 262 262 262 262 262 262 262 262
324 326 326 325 324 323 323 322 321 320 318 316 316 316 314 311 308 304 299 292 286 283 279 274 268 264 260 255 250 247 245 243 241 242 242 238 233 231 230 228 228 231 233 234 235 235 236 238 240 240 240 240 242 244 247 251 254 257 259 260 260 260 260 260 261 260 260 260 260 260 260 260 260 260 260 260 261 262 262 263 262 262 261 261 261
321 322 321 321 321 321 321 320 319 318 317 315 313 312 311 308 304 301 297 291 283 276 272 270 268 265 261 258 254 251 250 249 246 247 248 246 242 239 237 233 233 234 235 236 238 240 240 240 241 242 242 243 244 246 249 252 256 259 261 263 264 264 264 263 262 262 261 260 259 260 260 260 260 261 261 261 262 262 262 262 262 262 261 262 262
319 318 317 317 317 317 318 317 316 315 314 313 311 309 307 305 302 298 294 289 283 274 266 262 261 260 261 261 258 254 253 252 251 251 251 249 248 248 246 244 243 243 242 243 242 242 242 242 242 243 245 247 250 253 257 260 262 263 264 265 266 266 265 265 264 263 262 261 261 260 260 260 260 260 260 261 261 261 260 260 260 260 261 262 263
317 316 315 314 314 313 313 313 312 311 310 310 309 307 304 302 299 296 292 287 281 275 267 261 256 254 255 257 258 257 256 254 253 253 250 248 249 250 250 249 248 247 247 247 246 245 244 243 243 244 245 248 251 255 258 262 264 267 268 268 267 267 266 266 266 265 264 263 262 261 260 260 260 260 260 260 260 260 259 258 258 259 261 262 263
315 314 314 313 312 310 309 309 308 308 307 306 305 303 301 298 295 292 290 285 280 274 268 264 259 254 252 252 253 254 254 252 252 251 249 247 248 249 250 249 249 247 246 245 245 246 246 245 245 246 247 248 251 254 257 262 265 268 270 270 270 269 267 266 266 265 265 264 263 262 262 261 261 261 260 260 260 259 259 259 260 260 261 262 264
314 313 312 312 310 308 307 306 304 303 303 302 301 299 297 295 292 289 286 283 279 274 269 265 261 257 254 252 251 251 252 250 249 248 247 247 247 247 249 249 248 247 245 242 242 243 244 245 246 247 248 251 254 257 261 265 267 269 271 272 272 271 267 265 263 262 263 263 263 263 262 262 262 261 260 259 259 260 260 261 262 262 263 264 265
312 311 311 310 308 307 305 303 301 300 299 298 297 296 293 291 289 286 283 279 276 273 269 265 262 260 257 254 251 251 251 251 250 248 247 247 247 248 248 249 248 247 245 242 241 241 241 242 245 247 250 254 257 260 263 266 268 270 271 272 272 270 267 263 261 260 261 262 262 262 262 262 262 261 260 260 259 259 260 261 262 263 263 264 264
310 310 309 308 306 304 302 300 299 297 295 294 293 292 290 288 285 283 280 277 274 271 268 264 261 260 258 256 254 251 250 249 250 249 248 248 249 249 250 249 249 249 247 245 243 242 241 243 245 248 252 256 258 261 263 265 268 270 272 273 273 270 266 262 260 259 259 259 259 260 261 261 260 259 259 259 258 258 257 258 258 259 260 259 259
309 308 307 306 305 303 301 298 296 294 292 290 288 287 286 285 283 280 278 275 272 269 266 263 261 259 257 255 254 252 249 247 246 245 245 246 248 249 251 251 251 251 250 250 249 248 247 247 247 250 253 257 260 263 266 269 271 273 274 274 273 270 266 262 259 257 256 255 255 257 258 257 256 256 255 256 256 255 255 255 253 253 253 252 251
309 308 307 306 305 303 300 298 295 292 290 288 285 282 281 280 279 278 276 273 271 269 267 264 261 260 257 255 253 251 249 247 246 244 243 243 244 247 249 251 252 253 253 252 252 251 250 250 250 251 255 259 263 267 269 271 274 274 273 273 270 267 263 261 258 257 255 253 252 253 254 253 253 252 252 253 253 252 251 250 248 245 245 244 244
309 308 307 306 305 303 301 297 294 291 289 286 284 281 278 276 275 274 273 270 268 267 265 263 262 260 258 256 254 251 249 248 247 246 245 245 245 248 250 251 252 254 254 254 254 253 253 253 253 254 256 260 263 267 269 272 273 273 273 271 268 265 261 259 256 254 253 251 250 250 250 250 251 250 249 249 248 246 244 242 239 237 236 235 233
310 309 308 307 305 303 301 298 294 291 287 284 282 279 276 274 272 270 269 268 267 264 263 262 261 259 258 256 254 252 250 249 247 246 246 246 247 248 249 251 252 254 255 256 256 256 256 257 256 257 259 260 262 265 268 271 273 273 273 271 268 266 263 259 254 251 249 247 246 246 247 248 248 247 245 243 240 238 234 231 228 226 223 218 216
311 311 309 308 306 304 302 299 296 292 288 284 282 279 276 273 270 267 266 265 264 263 261 259 258 257 256 255 252 250 249 247 246 245 244 245 246 247 248 249 250 252 254 255 256 256 257 258 258 259 260 261 262 265 267 270 273 274 272 271 269 268 265 259 252 247 245 242 241 241 243 244 243 240 236 231 227 224 221 218 213 209 207 206 214
313 311 310 309 307 305 303 300 297 293 289 286 283 280 277 273 269 266 264 262 261 260 259 257 256 254 252 251 250 248 246 245 244 243 242 241 242 244 246 247 248 250 252 254 255 256 257 257 258 259 260 261 262 264 266 269 272 272 271 270 269 267 263 257 250 244 241 239 237 236 236 236 234 229 224 219 214 210 207 202 198 198 202 213 232
313 312 311 309 308 306 303 301 298 295 291 288 284 282 279 275 271 267 264 261 260 258 257 255 254 253 250 248 247 246 244 243 242 241 241 240 240 242 244 245 246 247 249 251 253 255 256 257 258 259 260 261 262 263 265 267 268 268 268 267 267 264 258 250 244 240 238 236 233 230 227 225 221 216 210 206 201 196 193 191 192 200 215 232 249
314 312 311 309 308 306 304 302 299 296 293 290 287 283 281 278 275 271 266 262 259 257 256 255 254 253 251 249 246 244 243 242 240 239 240 239 239 240 242 243 244 246 247 249 251 253 254 256 258 260 261 261 262 262 263 264 265 264 263 263 263 259 251 242 236 235 233 230 227 223 218 212 208 203 197 193 189 186 185 189 199 215 234 246 256
314 313 312 310 309 308 306 303 301 298 294 291 289 286 282 279 276 273 269 265 261 257 255 254 252 252 251 250 247 245 243 241 240 240 239 238 239 240 241 242 243 244 246 248 250 251 252 254 256 258 259 260 261 261 262 263 262 260 257 257 256 252 244 235 231 229 226 222 219 214 207 200 196 191 186 183 182 182 187 200 215 231 243 251 259
Height
2958 2957 2955 2954 2953 2952 2951 2949 2948 2947 2945 2944 2943 2942 2941 2940 2940 2939 2939 2937 2936 2934 2933 2932 2931 2931 2931 2932 2932 2932 2932 2932 2932 2932 2933 2934 2935 2936 2938 2939 2939 2941 2943 2945 2947 2949 2951 2954 2956 2959 2962 2963 2966 2968 2970 2971 2973 2974 2976 2978 2980 2983 2985 2985 2986 2987 2990 2992 2995 2997 2999 3001 3002 3004 3006 3007 3009 3011 3013 3015 3017 3019 3021 3023 3025
2954 2953 2952 2950 2949 2947 2946 2944 2943 2941 2940 2938 2936 2935 2934 2933 2933 2932 2931 2931 2930 2928 2927 2926 2925 2924 2924 2924 2925 2925 2925 2925 2925 2926 2926 2927 2928 2929 2930 2931 2932 2935 2936 2938 2939 2941 2943 2946 2948 2951 2954 2955 2958 2960 2962 2964 2966 2967 2969 2971 2973 2975 2978 2979 2981 2982 2983 2986 2987 2989 2991 2992 2994 2997 2999 3000 3002 3003 3005 3007 3010 3012 3014 3016 3018
2950 2949 2948 2946 2945 2943 2941 2940 2938 2936 2935 2933 2931 2929 2927 2926 2925 2925 2924 2923 2922 2922 2920 2919 2918 2917 2917 2916 2917 2918 2918 2919 2919 2919 2919 2920 2920 2921 2923 2924 2925 2927 2929 2931 2933 2935 2936 2938 2941 2944 2946 2947 2950 2952 2955 2957 2959 2960 2963 2965 2966 2969 2971 2973 2974 2976 2978 2980 2981 2982 2984 2985 2987 2989 2991 2993 2994 2995 2997 2999 3002 3004 3007 3008 3011
2946 2944 2943 2942 2940 2939 2937 2935 2933 2931 2930 2928 2926 2924 2922 2920 2918 2917 2916 2916 2915 2914 2913 2912 2911 2911 2910 2909 2909 2910 2911 2912 2912 2913 2913 2913 2914 2914 2915 2916 2918 2920 2922 2924 2926 2927 2929 2931 2934 2937 2938 2940 2942 2945 2947 2949 2951 2953 2956 2958 2960 2962 2965 2966 2968 2970 2972 2973 2975 2976 2977 2979 2980 2982 2983 2985 2987 2988 2990 2992 2994 2997 2999 3001 3003
2940 2939 2938 2936 2935 2934 2932 2930 2929 2927 2925 2923 2920 2919 2917 2914 2912 2910 2909 2908 2908 2907 2906 2905 2904 2903 2903 2903 2902 2902 2903 2904 2905 2906 2907 2907 2907 2908 2908 2909 2910 2912 2914 2916 2918 2920 2922 2924 2927 2929 2930 2932 2935 2937 2939 2942 2944 2946 2949 2951 2953 2956 2958 2960 2962 2964 2965 2966 2968 2969 2971 2972 2973 2975 2976 2978 2979 2981 2983 2985 2987 2989 2992 2994 2996
2935 2933 2932 2930 2929 2927 2926 2924 2923 2921 2920 2918 2915 2913 2911 2909 2907 2904 2902 2900 2900 2899 2899 2898 2897 2896 2896 2895 2895 2895 2895 2896 2897 2898 2899 2900 2901 2901 2902 2903 2904 2905 2907 2909 2911 2913 2915 2917 2920 2922 2923 2925 2928 2931 2933 2935 2937 2939 2942 2944 2946 2948 2950 2952 2955 2956 2957 2959 2961 2963 2964 2965 2967 2969 2971 2972 2973 2975 2976 2978 2980 2982 2984 2987 2989
2930 2928 2926 2925 2923 2921 2919 2918 2917 2915 2914 2912 2910 2908 2906 2904 2902 2899 2896 2894 2892 2892 2891 2891 2890 2889 2888 2888 2887 2887 2888 2888 2889 2890 2892 2893 2894 2895 2895 2896 2897 2899 2900 2902 2903 2905 2907 2910 2912 2914 2916 2919 2921 2924 2926 2928 2930 2932 2935 2937 2940 2941 2943 2945 2947 2948 2950 2952 2954 2956 2958 2959 2961 2963 2965 2966 2967 2968 2969 2971 2973 2976 2979 2981 2984
2924 2922 2920 2919 2917 2915 2913 2911 2910 2908 2907 2905 2904 2902 2900 2898 2896 2894 2891 2888 2886 2884 2883 2883 2883 2882 2881 2881 2880 2879 2880 2881 2882 2883 2884 2886 2887 2888 2889 2890 2891 2892 2894 2895 2897 2898 2900 2903 2905 2907 2909 2912 2914 2917 2919 2921 2923 2925 2927 2930 2931 2933 2935 2937 2939 2941 2943 2945 2947 2949 2951 2953 2955 2957 2958 2959 2960 2962 2964 2966 2968 2971 2973 2975 2977
2918 2916 2914 2913 2911 2908 2906 2904 2903 2901 2900 2898 2897 2895 2893 2892 2890 2888 2886 2883 2881 2878 2876 2875 2875 2874 2874 2873 2873 2872 2872 2872 2874 2876 2877 2878 2879 2880 2882 2883 2884 2886 2887 2889 2890 2892 2894 2896 2898 2900 2903 2905 2907 2909 2911 2913 2915 2918 2920 2922 2924 2926 2928 2930 2931 2934 2936 2938 2940 2943 2945 2947 2949 2950 2952 2954 2956 2957 2959 2960 2962 2964 2966 2967 2969
2912 2910 2908 2906 2904 2902 2900 2898 2896 2894 2893 2891 2889 2888 2886 2885 2883 2882 2880 2878 2875 2873 2871 2869 2868 2867 2866 2866 2866 2865 2864 2865 2866 2867 2870 2871 2872 2873 2874 2876 2877 2879 2881 2882 2884 2886 2887 2889 2891 2893 2896 2898 2900 2902 2905 2907 2909 2911 2913 2916 2918 2920 2922 2923 2925 2927 2929 2932 2934 2936 2938 2941 2943 2944 2946 2948 2949 2951 2952 2953 2955 2957 2958 2959 2961
2907 2905 2902 2900 2898 2896 2894 2892 2890 2888 2886 2884 2882 2881 2879 2877 2876 2874 2873 2871 2869 2867 2865 2863 2861 2860 2859 2858 2858 2858 2858 2857 2858 2859 2862 2863 2864 2865 2867 2869 2871 2872 2874 2876 2877 2879 2881 2883 2885 2887 2889 2891 2893 2895 2898 2900 2902 2904 2907 2909 2911 2913 2915 2917 2919 2921 2923 2925 2928 2930 2932 2935 2937 2939 2940 2942 2942 2944 2945 2947 2948 2950 2950 2952 2953
2901 2899 2896 2894 2892 2890 2887 2885 2883 2881 2879 2877 2875 2873 2872 2870 2869 2867 2865 2864 2862 2861 2859 2857 2855 2853 2852 2851 2850 2850 2851 2851 2850 2851 2854 2855 2856 2857 2860 2862 2864 2866 2867 2869 2871 2872 2874 2876 2878 2880 2882 2884 2886 2889 2891 2893 2895 2898 2900 2902 2904 2906 2909 2911 2913 2915 2917 2919 2921 2923 2926 2929 2931 2932 2935 2936 2936 2937 2939 2940 2941 2942 2943 2945 2946
2896 2893 2891 2888 2886 2884 2881 2879 2876 2874 2872 2870 2868 2866 2864 2863 2861 2859 2858 2856 2854 2853 2852 2851 2849 2847 2845 2844 2843 2843 2843 2844 2843 2844 2846 2848 2848 2849 2852 2855 2857 2859 2861 2863 2864 2866 2868 2870 2872 2874 2876 2878 2880 2882 2884 2887 2889 2891 2894 2896 2898 2900 2902 2905 2907 2909 2911 2913 2915 2918 2921 2923 2924 2926 2928 2929 2929 2931 2932 2933 2934 2936 2937 2938 2939
2889 2887 2884 2882 2880 2877 2875 2872 2869 2867 2865 2863 2860 2858 2857 2855 2853 2852 2850 2848 2847 2845 2844 2843 2842 2841 2838 2837 2836 2835 2836 2837 2836 2837 2839 2840 2840 2841 2845 2848 2850 2852 2854 2856 2858 2859 2861 2864 2866 2868 2870 2872 2874 2876 2878 2881 2883 2885 2887 2889 2892 2894 2896 2898 2901 2903 2905 2907 2909 2912 2914 2916 2918 2920 2921 2921 2922 2924 2925 2927 2928 2929 2930 2931 2932
2882 2880 2877 2875 2872 2870 2867 2865 2862 2860 2858 2856 2853 2851 2849 2847 2845 2844 2842 2840 2839 2837 2836 2835 2834 2833 2832 2830 2828 2828 2829 2829 2829 2831 2832 2834 2833 2834 2837 2841 2843 2845 2847 2849 2851 2853 2855 2857 2860 2862 2864 2866 2868 2870 2872 2875 2877 2879 2881 2884 2886 2888 2890 2893 2895 2896 2899 2901 2903 2905 2907 2908 2910 2912 2913 2914 2916 2917 2919 2920 2921 2922 2923 2923 2924
2876 2873 2870 2867 2865 2863 2860 2857 2855 2852 2850 2848 2846 2844 2842 2839 2837 2835 2833 2832 2831 2830 2829 2827 2826 2825 2824 2823 2821 2821 2822 2822 2823 2824 2826 2827 2827 2827 2830 2834 2836 2838 2841 2843 2845 2847 2849 2851 2853 2855 2858 2860 2862 2864 2866 2869 2871 2873 2875 2878 2880 2882 2884 2887 2888 2890 2892 2894 2895 2897 2899 2901 2903 2904 2906 2907 2908 2910 2912 2912 2914 2915 2915 2916 2917
2870 2867 2864 2861 2858 2856 2853 2849 2847 2844 2842 2840 2838 2836 2834 2832 2830 2827 2825 2824 2823 2822 2821 2820 2819 2817 2816 2815 2814 2814 2815 2815 2816 2817 2819 2820 2820 2820 2824 2828 2830 2831 2834 2836 2838 2841 2843 2845 2847 2849 2852 2854 2856 2858 2860 2863 2865 2867 2869 2871 2873 2876 2878 2880 2881 2883 2885 2886 2888 2890 2892 2894 2895 2897 2899 2900 2902 2903 2904 2905 2907 2908 2908 2909 2911
2863 2860 2857 2854 2851 2848 2845 2842 2839 2836 2834 2831 2829 2827 2826 2824 2822 2820 2817 2816 2815 2814 2813 2812 2811 2810 2808 2808 2807 2807 2808 2809 2809 2811 2812 2814 2814 2814 2817 2822 2824 2825 2827 2829 2832 2834 2837 2839 2841 2844 2846 2848 2850 2852 2854 2857 2859 2861 2863 2865 2867 2869 2871 2873 2875 2876 2878 2879 2881 2883 2885 2887 2889 2890 2892 2893 2895 2896 2898 2899 2900 2901 2901 2903 2904
2855 2852 2849 2846 2843 2840 2837 2834 2830 2827 2825 2822 2820 2818 2817 2815 2814 2812 2810 2808 2807 2806 2805 2804 2803 2802 2801 2800 2800 2800 2801 2802 2803 2804 2806 2808 2808 2809 2812 2816 2818 2820 2821 2823 2825 2828 2830 2832 2835 2838 2840 2842 2844 2846 2849 2851 2853 2855 2857 2859 2861 2863 2865 2867 2869 2870 2871 2873 2875 2877 2879 2881 2882 2884 2885 2886 2888 2889 2891 2892 2893 2894 2895 2896 2897
2848 2845 2841 2838 2835 2832 2829 2826 2822 2819 2816 2813 2811 2809 2807 2806 2805 2803 2802 2800 2799 2798 2797 2796 2795 2795 2794 2794 2794 2794 2795 2796 2797 2798 2799 2802 2803 2804 2806 2810 2812 2814 2816 2817 2819 2822 2824 2827 2829 2832 2834 2836 2838 2840 2843 2845 2848 2850 2852 2853 2855 2857 2859 2861 2863 2864 2865 2866 2868 2870 2872 2874 2876 2877 2879 2880 2881 2882 2884 2885 2886 2887 2888 2888 2889
2841 2837 2834 2830 2827 2824 2821 2818 2814 2812 2809 2806 2803 2801 2799 2797 2796 2795 2794 2793 2791 2790 2790 2789 2788 2788 2788 2788 2788 2789 2789 2790 2791 2792 2794 2796 2798 2799 2802 2805 2807 2808 2810 2812 2814 2816 2819 2821 2824 2826 2828 2830 2832 2834 2836 2839 2842 2844 2846 2847 2849 2851 2853 2855 2857 2858 2859 2861 2862 2864 2866 2867 2869 2870 2872 2873 2874 2875 2877 2878 2878 2880 2881 2881 2882
2834 2830 2826 2823 2819 2816 2813 2811 2808 2805 2803 2800 2797 2795 2792 2790 2789 2788 2787 2786 2785 2784 2783 2783 2782 2782 2782 2782 2783 2783 2784 2785 2786 2787 2789 2791 2793 2794 2797 2800 2802 2802 2804 2806 2809 2811 2814 2816 2818 2821 2823 2825 2827 2828 2830 2833 2835 2838 2840 2841 2843 2845 2847 2849 2850 2852 2853 2855 2856 2858 2860 2861 2862 2863 2865 2866 2867 2868 2870 2871 2871 2872 2874 2875 2875
2827 2824 2820 2816 2813 2810 2807 2804 2802 2799 2797 2794 2791 2788 2786 2785 2783 2782 2781 2780 2779 2778 2778 2777 2777 2776 2777 2778 2778 2779 2780 2780 2781 2782 2784 2786 2788 2790 2792 2795 2797 2797 2799 2801 2804 2807 2809 2811 2813 2815 2817 2819 2821 2823 2825 2827 2829 2832 2834 2836 2837 2839 2841 2842 2844 2845 2847 2848 2850 2852 2853 2854 2856 2857 2858 2859 2860 2861 2863 2864 2865 2865 2867 2868 2869
2822 2818 2814 2811 2808 2804 2801 2798 2796 2794 2791 2789 2786 2783 2782 2780 2779 2778 2776 2775 2774 2774 2773 2773 2772 2772 2773 2773 2774 2774 2775 2776 2777 2778 2780 2782 2784 2786 2788 2790 2792 2794 2795 2797 2799 2802 2804 2806 2808 2810 2811 2814 2816 2818 2820 2822 2824 2825 2827 2829 2831 2833 2834 2836 2838 2839 2841 2842 2844 2845 2847 2848 2849 2851 2852 2853 2854 2855 2856 2857 2858 2858 2859 2861 2861
2818 2814 2810 2806 2803 2799 2796 2793 2791 2789 2786 2784 2781 2779 2777 2776 2775 2774 2772 2771 2770 2770 2769 2769 2769 2768 2769 2770 2770 2771 2772 2773 2774 2775 2776 2778 2780 2782 2784 2786 2788 2791 2792 2793 2795 2797 2799 2801 2804 2805 2807 2810 2812 2813 2815 2817 2818 2820 2821 2823 2825 2827 2829 2830 2832 2833 2835 2836 2838 2839 2841 2842 2844 2845 2846 2848 2849 2850 2851 2851 2852 2852 2853 2854 2854
2813 2810 2806 2802 2799 2795 2792 2789 2787 2784 2782 2780 2777 2775 2774 2772 2771 2770 2769 2768 2767 2766 2766 2766 2766 2766 2766 2767 2767 2768 2769 2770 2771 2772 2773 2775 2777 2778 2781 2783 2785 2787 2788 2789 2791 2793 2795 2797 2799 2801 2803 2805 2807 2808 2810 2812 2814 2815 2817 2818 2820 2822 2823 2825 2826 2828 2829 2830 2832 2834 2835 2837 2838 2839 2840 2842 2843 2844 2845 2846 2847 2847 2848 2848 2848
2809 2806 2802 2798 2795 2792 2788 2785 2783 2781 2779 2776 2774 2772 2771 2769 2768 2767 2766 2765 2764 2764 2764 2764 2764 2764 2764 2764 2765 2765 2767 2768 2768 2769 2771 2773 2774 2776 2778 2780 2782 2783 2785 2786 2788 2789 2792 2794 2795 2797 2799 2801 2803 2804 2806 2808 2810 2812 2813 2815 2816 2817 2819 2820 2821 2823 2824 2825 2827 2828 2830 2831 2833 2834 2835 2836 2837 2838 2839 2840 2841 2842 2843 2843 2843
2806 2803 2799 2795 2792 2788 2785 2782 2780 2778 2776 2774 2772 2770 2768 2767 2766 2765 2764 2762 2762 2762 2762 2762 2762 2762 2762 2762 2763 2763 2764 2765 2766 2768 2769 2770 2772 2773 2775 2777 2778 2780 2782 2783 2785 2786 2788 2790 2791 2793 2795 2797 2799 2801 2803 2805 2807 2808 2810 2811 2812 2813 2815 2816 2817 2818 2820 2821 2822 2823 2824 2826 2827 2828 2830 2831 2832 2833 2834 2835 2835 2836 2837 2838 2838
2803 2800 2796 2792 2789 2786 2783 2780 2777 2775 2773 2771 2770 2768 2766 2764 2763 2763 2762 2760 2760 2760 2760 2760 2760 2760 2760 2761 2761 2762 2763 2763 2764 2766 2766 2768 2769 2771 2773 2774 2776 2777 2779 2780 2782 2783 2785 2786 2788 2790 2792 2794 2796 2797 2799 2801 2803 2804 2806 2807 2809 2810 2811 2812 2813 2814 2815 2817 2818 2819 2820 2821 2822 2823 2824 2826 2827 2828 2828 2829 2830 2831 2832 2832 2832
2800 2797 2793 2790 2787 2784 2781 2778 2776 2773 2771 2769 2767 2766 2764 2762 2761 2761 2760 2759 2758 2758 2758 2758 2758 2758 2759 2759 2760 2760 2761 2762 2763 2764 2764 2765 2767 2769 2770 2772 2773 2774 2776 2778 2779 2780 2782 2783 2785 2787 2789 2791 2792 2793 2795 2797 2799 2800 2802 2803 2805 2806 2807 2808 2809 2810 2811 2812 2813 2814 2815 2816 2817 2818 2819 2820 2821 2822 2823 2824 2824 2825 2825 2826 2826
2796 2794 2791 2787 2784 2781 2779 2776 2774 2771 2769 2767 2765 2764 2763 2761 2759 2758 2758 2757 2757 2757 2757 2757 2757 2757 2757 2758 2758 2759 2759 2760 2761 2762 2762 2764 2766 2767 2768 2769 2770 2772 2774 2776 2777 2778 2779 2781 2782 2784 2786 2787 2788 2790 2792 2793 2795 2796 2798 2799 2800 2801 2802 2804 2805 2806 2806 2807 2808 2809 2810 2810 2811 2812 2813 2814 2815 2816 2817 2818 2818 2819 2819 2820 2820
2793 2790 2787 2785 2782 2779 2776 2774 2772 2769 2767 2765 2763 2762 2761 2760 2759 2757 2756 2756 2755 2755 2755 2755 2755 2755 2756 2756 2757 2757 2758 2758 2759 2760 2761 2762 2764 2765 2766 2767 2768 2770 2771 2773 2774 2775 2777 2778 2780 2781 2782 2784 2785 2786 2788 2789 2791 2792 2794 2795 2796 2797 2798 2799 2800 2800 2801 2802 2803 2803 2804 2805 2805 2806 2807 2808 2809 2809 2810 2811 2812 2813 2813 2814 2814
2790 2787 2784 2782 2779 2777 2774 2772 2770 2767 2765 2763 2762 2760 2759 2758 2757 2756 2755 2754 2754 2754 2753 2753 2753 2754 2754 2755 2755 2755 2756 2757 2758 2758 2759 2761 2762 2763 2764 2765 2767 2768 2769 2770 2771 2773 2774 2775 2777 2778 2779 2780 2782 2783 2784 2785 2787 2788 2790 2791 2792 2793 2794 2794 2795 2796 2796 2797 2798 2799 2799 2800 2800 2800 2801 2802 2802 2803 2804 2805 2806 2807 2807 2807 2808
2787 2784 2781 2778 2776 2774 2772 2769 2767 2765 2763 2761 2760 2758 2757 2756 2755 2754 2753 2752 2752 2752 2752 2752 2752 2752 2752 2753 2753 2754 2754 2755 2756 2757 2757 2759 2760 2761 2763 2764 2765 2766 2767 2768 2769 2770 2771 2772 2774 2775 2777 2778 2779 2780 2781 2782 2783 2784 2785 2787 2788 2788 2789 2790 2790 2791 2792 2792 2793 2793 2794 2795 2795 2796 2796 2796 2797 2797 2798 2799 2800 2801 2801 2802 2802
2785 2782 2779 2776 2773 2771 2769 2767 2765 2763 2761 2759 2757 2756 2755 2754 2753 2752 2752 2751 2750 2750 2750 2750 2750 2750 2751 2751 2752 2752 2752 2753 2754 2755 2755 2757 2758 2759 2760 2762 2763 2764 2765 2766 2767 2768 2769 2770 2771 2772 2774 2775 2776 2777 2778 2778 2779 2780 2781 2782 2783 2784 2785 2785 2786 2787 2787 2788 2788 2789 2789 2790 2790 2791 2791 2792 2792 2793 2794 2794 2795 2796 2796 2797 2797
2782 2779 2777 2774 2771 2769 2766 2764 2762 2760 2758 2757 2755 2754 2753 2752 2751 2750 2749 2749 2749 2748 2748 2748 2748 2748 2749 2749 2749 2750 2750 2751 2752 2753 2754 2755 2756 2757 2758 2759 2760 2761 2762 2763 2764 2765 2766 2767 2768 2769 2770 2771 2773 2774 2774 2775 2776 2777 2777 2778 2779 2780 2781 2781 2782 2782 2783 2783 2784 2785 2785 2785 2786 2786 2787 2787 2788 2789 2789 2790 2791 2791 2792 2792 2792
2778 2775 2773 2771 2769 2766 2764 2762 2759 2757 2755 2754 2752 2751 2750 2749 2748 2748 2747 2747 2747 2746 2746 2746 2746 2746 2746 2747 2747 2748 2748 2749 2750 2751 2752 2753 2754 2754 2755 2757 2758 2758 2759 2760 2761 2762 2763 2764 2765 2766 2767 2768 2769 2770 2771 2771 2772 2773 2774 2775 2775 2776 2777 2777 2778 2778 2779 2779 2780 2781 2781 2782 2782 2782 2783 2783 2784 2785 2786 2786 2786 2787 2787 2788 2788
2774 2771 2769 2767 2765 2763 2761 2759 2757 2755 2753 2751 2750 2748 2747 2746 2746 2745 2745 2744 2744 2744 2744 2744 2744 2744 2744 2745 2745 2745 2746 2747 2748 2748 2750 2751 2751 2752 2753 2754 2755 2756 2757 2758 2758 2759 2760 2761 2762 2763 2764 2765 2766 2767 2768 2768 2769 2769 2770 2771 2771 2772 2772 2773 2773 2774 2774 2775 2776 2776 2777 2777 2778 2778 2779 2780 2780 2781 2781 2782 2782 2783 2783 2784 2784
2770 2768 2765 2763 2761 2759 2757 2755 2753 2752 2750 2748 2747 2745 2744 2744 2743 2742 2742 2742 2741 2741 2741 2741 2742 2742 2742 2743 2743 2743 2744 2745 2746 2746 2747 2748 2749 2750 2751 2752 2752 2753 2754 2755 2756 2757 2757 2759 2760 2761 2762 2763 2763 2764 2765 2765 2765 2766 2766 2767 2767 2768 2768 2769 2769 2769 2770 2771 2771 2772 2772 2773 2774 2774 2775 2776 2776 2776 2777 2778 2778 2779 2779 2779 2780
2765 2763 2761 2759 2756 2755 2753 2751 2750 2748 2746 2745 2744 2742 2741 2740 2740 2739 2739 2739 2738 2738 2738 2739 2739 2739 2740 2740 2741 2741 2742 2743 2743 2744 2745 2746 2747 2748 2748 2749 2750 2751 2752 2753 2754 2754 2755 2756 2757 2758 2759 2760 2760 2761 2761 2762 2762 2762 2763 2763 2763 2764 2764 2765 2765 2765 2766 2766 2767 2768 2768 2769 2770 2770 2771 2771 2772 2772 2773 2773 2774 2774 2775 2775 2775
2760 2758 2756 2754 2752 2750 2748 2747 2745 2744 2742 2741 2740 2739 2738 2737 2736 2736 2736 2735 2735 2735 2735 2735 2736 2736 2736 2737 2738 2738 2739 2740 2740 2741 2742 2743 2744 2745 2745 2746 2747 2748 2749 2750 2751 2752 2753 2753 2754 2755 2756 2757 2757 2758 2758 2759 2759 2759 2759 2759 2760 2760 2760 2761 2761 2761 2762 2763 2763 2763 2764 2765 2766 2766 2767 2767 2768 2768 2769 2769 2770 2770 2771 2771 2772
2755 2753 2751 2749 2747 2745 2743 2742 2741 2739 2738 2737 2736 2735 2734 2733 2733 2732 2732 2732 2732 2732 2732 2732 2732 2732 2733 2734 2734 2735 2736 2736 2737 2738 2739 2740 2741 2741 2742 2743 2744 2745 2746 2747 2748 2749 2750 2751 2751 2752 2753 2753 2754 2754 2755 2755 2756 2756 2756 2756 2756 2756 2756 2756 2757 2758 2759 2759 2759 2760 2760 2761 2762 2763 2763 2764 2764 2765 2766 2766 2767 2767 2767 2768 2768
2750 2748 2745 2744 2742 2740 2738 2737 2735 2735 2734 2733 2732 2731 2730 2730 2729 2729 2728 2728 2728 2728 2728 2729 2729 2729 2729 2730 2731 2731 2732 2733 2734 2735 2736 2737 2738 2738 2739 2740 2741 2742 2743 2744 2745 2745 2746 2747 2748 2749 2749 2750 2750 2751 2752 2752 2752 2752 2752 2753 2752 2752 2752 2753 2753 2754 2755 2756 2756 2757 2757 2758 2759 2759 2760 2760 2761 2762 2762 2763 2764 2764 2764 2765 2766
2745 2743 2740 2738 2736 2735 2733 2731 2730 2729 2728 2728 2727 2727 2726 2725 2725 2725 2724 2724 2724 2724 2724 2725 2725 2725 2726 2726 2727 2728 2729 2729 2730 2731 2732 2733 2734 2735 2736 2737 2738 2738 2739 2740 2741 2742 2743 2744 2745 2746 2746 2746 2747 2748 2748 2748 2749 2749 2749 2749 2749 2749 2749 2749 2750 2751 2752 2752 2753 2754 2754 2755 2756 2756 2757 2757 2758 2759 2759 2760 2760 2761 2762 2762 2763
2740 2737 2735 2733 2731 2730 2728 2726 2725 2724 2723 2722 2722 2722 2721 2721 2721 2720 2720 2720 2720 2720 2720 2720 2721 2721 2722 2722 2723 2724 2724 2725 2726 2727 2728 2729 2730 2731 2732 2733 2734 2735 2736 2737 2738 2739 2740 2740 2741 2742 2742 2743 2744 2744 2745 2745 2745 2745 2746 2746 2746 2746 2746 2746 2747 2748 2748 2749 2749 2750 2751 2751 2752 2753 2753 2754 2754 2755 2756 2757 2758 2758 2759 2760 2761
2735 2732 2730 2728 2726 2724 2723 2721 2720 2718 2717 2717 2716 2716 2716 2716 2716 2716 2716 2716 2716 2716 2716 2716 2717 2717 2718 2718 2719 2719 2720 2721 2722 2723 2724 2725 2726 2727 2728 2730 2731 2731 2732 2733 2734 2735 2736 2736 2737 2738 2739 2739 2740 2741 2741 2741 2742 2742 2742 2742 2742 2742 2742 2743 2743 2744 2744 2745 2746 2746 2747 2748 2749 2749 2750 2751 2752 2752 2754 2755 2755 2756 2757 2758 2759
2729 2727 2725 2723 2721 2719 2717 2716 2714 2713 2712 2711 2711 2711 2710 2710 2710 2710 2711 2711 2711 2712 2712 2712 2713 2713 2714 2714 2715 2716 2716 2717 2718 2719 2720 2721 2722 2723 2724 2726 2727 2727 2728 2729 2730 2731 2732 2733 2733 2734 2735 2736 2736 2737 2737 2738 2738 2738 2738 2738 2738 2738 2739 2739 2740 2741 2741 2742 2743 2743 2744 2745 2746 2747 2748 2749 2750 2751 2752 2753 2754 2755 2756 2757 2757
2724 2722 2719 2717 2715 2714 2712 2711 2709 2708 2707 2706 2705 2705 2705 2705 2705 2705 2705 2706 2706 2707 2707 2708 2708 2709 2710 2710 2711 2712 2712 2713 2714 2715 2716 2717 2718 2719 2720 2722 2723 2724 2724 2725 2726 2727 2728 2729 2730 2730 2731 2732 2733 2733 2734 2734 2734 2734 2734 2734 2735 2735 2735 2736 2737 2737 2738 2739 2740 2741 2742 2742 2743 2744 2746 2747 2748 2749 2750 2751 2753 2754 2754 2755 2756
2719 2716 2714 2712 2710 2708 2707 2706 2704 2703 2702 2701 2701 2700 2699 2699 2699 2699 2700 2700 2701 2701 2702 2703 2704 2704 2705 2706 2707 2708 2708 2709 2710 2711 2712 2713 2714 2715 2717 2718 2719 2720 2721 2722 2722 2723 2725 2725 2726 2727 2728 2728 2729 2730 2730 2731 2731 2731 2731 2731 2732 2732 2732 2733 2734 2734 2735 2736 2737 2738 2739 2740 2741 2743 2744 2745 2746 2748 2749 2750 2751 2752 2753 2753 2753
2714 2711 2709 2707 2705 2704 2702 2701 2700 2699 2697 2697 2696 2695 2695 2694 2694 2694 2694 2694 2695 2696 2697 2698 2698 2699 2700 2701 2702 2703 2704 2705 2706 2707 2708 2709 2710 2711 2713 2714 2715 2716 2717 2718 2719 2720 2721 2722 2722 2723 2724 2725 2725 2726 2727 2727 2728 2728 2728 2728 2728 2729 2729 2730 2731 2732 2733 2734 2735 2736 2737 2738 2739 2741 2742 2744 2745 2747 2748 2749 2750 2750 2751 2751 2751
2709 2707 2705 2702 2701 2699 2698 2696 2695 2694 2693 2692 2691 2691 2690 2690 2689 2689 2689 2689 2689 2690 2691 2692 2693 2694 2695 2696 2697 2698 2699 2700 2701 2702 2703 2704 2706 2707 2708 2710 2711 2712 2713 2714 2715 2716 2717 2718 2719 2720 2721 2721 2722 2723 2723 2724 2724 2725 2725 2725 2725 2726 2727 2728 2729 2730 2730 2731 2732 2734 2735 2737 2738 2739 2741 2743 2744 2745 2746 2747 2748 2749 2749 2749 2749